Change the Weather History Date:

Thursday, October 11, 2012

  Actual Average Record
Temperature  
Mean Temperature 33 °F 46 °F  
Max Temperature 45 °F 56 °F 81 °F (1910)
Min Temperature 21 °F 35 °F 20 °F (2006)
Degree Days  
Heating Degree Days 32 20  
Month to date heating degree days 241 198  
Since 1 July heating degree days 671 630  
Cooling Degree Days 0 0  
Month to date cooling degree days 0 0  
Year to date cooling degree days 373 259  
Moisture  
Dew Point 27 °F    
Average Humidity 65    
Maximum Humidity 89    
Minimum Humidity 41    
Precipitation  
Precipitation T in 0.11 in 1.88 in (1986)
Month to date precipitation 0.30 1.27  
Year to date precipitation 24.66 26.35  
Snow  
Snow 0.00 in - 1.50 in (1909)
Month to date snowfall T  
Since 1 July snowfall T  
Since 1 September snowfall T  
Snow Depth 0.00 in    
Sea Level Pressure  
Sea Level Pressure 30.03 in    
Wind  
Wind Speed 6 mph (NW)    
Max Wind Speed 20 mph    
Max Gust Speed 26 mph    
Visibility 10 miles    
Events      
T = Trace of Precipitation, MM = Missing Value Source: NWS Daily Summary

Daily Weather History Graph

Daily Weather History Graph

Search for Another Location

Airport or City:

Trip Planner

Search our weather history database for the weather conditions in past years. The results will help you decide how hot, cold, wet, or windy it might be!

Date:

Astronomy

Oct. 11, 2012 Rise Set
Actual Time 7:09 AM CDT 6:18 PM CDT
Civil Twilight 6:39 AM CDT 6:48 PM CDT
Nautical Twilight 6:05 AM CDT 7:22 PM CDT
Astronomical Twilight 5:31 AM CDT 7:57 PM CDT
Moon 2:36 AM CDT (10/11) 4:04 PM CDT (10/11)
Length of Visible Light 12h 08m
Length of Day
11h 08m
Waning Crescent, 18% of the Moon is Illuminated
Oct 11
Waning Crescent
Oct 15
New
Oct 21
First Quarter
Oct 29
Full
Nov 6
Last Quarter

Hourly Weather History & Observations

Time (CDT) Temp. Windchill Dew Point Humidity Pressure Visibility Wind Dir Wind Speed Gust Speed Precip Events Conditions
12:53 AM 37.9 °F - 27.0 °F 65% 29.99 in 10.0 mi Calm Calm - N/A   Overcast
1:53 AM 37.0 °F 34.5 °F 28.0 °F 70% 29.96 in 10.0 mi East 3.5 mph - N/A   Overcast
2:53 AM 37.0 °F 33.3 °F 26.1 °F 65% 29.92 in 10.0 mi East 4.6 mph - N/A   Overcast
3:53 AM 37.9 °F 35.5 °F 26.1 °F 62% 29.88 in 10.0 mi SSE 3.5 mph - N/A   Overcast
4:53 AM 37.9 °F - 27.0 °F 65% 29.87 in 10.0 mi Calm Calm - N/A   Overcast
5:53 AM 37.0 °F - 28.0 °F 70% 29.88 in 10.0 mi Calm Calm - N/A   Overcast
6:53 AM 36.0 °F 33.3 °F 30.0 °F 79% 29.90 in 10.0 mi NNW 3.5 mph - 0.00 in   Mostly Cloudy
7:53 AM 36.0 °F 32.1 °F 32.0 °F 86% 29.93 in 10.0 mi NW 4.6 mph - N/A   Overcast
8:17 AM 35.6 °F 31.7 °F 32.0 °F 87% 29.90 in 10.0 mi NW 4.6 mph - N/A   Overcast
8:35 AM 35.6 °F 30.7 °F 33.8 °F 93% 29.92 in 10.0 mi NW 5.8 mph - N/A   Overcast
8:47 AM 37.4 °F 33.8 °F 33.8 °F 87% 29.92 in 10.0 mi WNW 4.6 mph - N/A   Overcast
8:53 AM 37.0 °F 32.4 °F 33.1 °F 86% 29.97 in 10.0 mi NW 5.8 mph - N/A   Overcast
9:53 AM 37.9 °F 31.5 °F 30.9 °F 76% 30.01 in 10.0 mi NW 9.2 mph 17.3 mph N/A   Overcast
10:13 AM 39.2 °F 34.2 °F 30.2 °F 70% 29.97 in 10.0 mi Variable 6.9 mph - N/A   Overcast
10:53 AM 39.9 °F 33.4 °F 30.9 °F 70% 30.03 in 10.0 mi NNW 10.4 mph 17.3 mph N/A   Mostly Cloudy
11:21 AM 41.0 °F 34.3 °F 26.6 °F 57% 30.00 in 10.0 mi WNW 11.5 mph - N/A   Mostly Cloudy
11:53 AM 42.1 °F 33.9 °F 25.0 °F 51% 30.05 in 10.0 mi WNW 17.3 mph 26.5 mph N/A   Scattered Clouds
12:53 PM 44.1 °F 37.7 °F 23.0 °F 43% 30.06 in 10.0 mi NW 12.7 mph 21.9 mph N/A   Partly Cloudy
1:53 PM 41.0 °F 33.5 °F 24.1 °F 51% 30.09 in 10.0 mi WNW 13.8 mph 20.7 mph N/A   Clear
2:53 PM 42.1 °F 36.6 °F 23.0 °F 47% 30.12 in 10.0 mi West 9.2 mph 18.4 mph N/A   Partly Cloudy
3:53 PM 43.0 °F 38.2 °F 21.9 °F 43% 30.13 in 10.0 mi WNW 8.1 mph 21.9 mph N/A   Mostly Cloudy
5:53 PM 39.0 °F 33.4 °F 21.0 °F 49% 30.20 in 10.0 mi NNW 8.1 mph 17.3 mph N/A   Overcast
6:53 PM 36.0 °F 31.1 °F 19.9 °F 52% 30.23 in 10.0 mi WNW 5.8 mph - N/A   Mostly Cloudy
8:53 PM 34.0 °F 28.8 °F 23.0 °F 64% 30.28 in 10.0 mi NW 5.8 mph - N/A   Mostly Cloudy
9:53 PM 28.0 °F 24.2 °F 21.0 °F 75% 30.31 in 10.0 mi West 3.5 mph - N/A   Clear
10:53 PM 26.1 °F 21.9 °F 21.0 °F 81% 30.33 in 10.0 mi West 3.5 mph - N/A   Clear